Regional Weather Roundup
Issued by NWS Wilmington, NC

Home | Current Version | Previous Version | Text Only | Print | Product List | Glossary On
Versions: 1 2 3 4 5 6 7 8 9 10 11 12 13 14 15 16 17 18 19 20 21 22 23 24 25 26 27 28 29 30 31 32 33 34 35 36 37 38 39 40 41 42 43 44 45 46 47 48 49 50
000
ASUS42 KILM 010413
RWRILM
RWRILM
REGIONAL HOURLY WEATHER ROUNDUP
NATIONAL WEATHER SERVICE WILMINGTON NC
1200 AM EDT SUN MAY 01 2016

NOTE: "FAIR" INDICATES FEW OR NO CLOUDS BELOW 12,000 FEET WITH NO
SIGNIFICANT WEATHER AND/OR OBSTRUCTIONS TO VISIBILITY.

...............WFO WILMINGTON COUNTY WARNING AREA...............

......COASTAL NC AND SC COUNTIES......

CITY           SKY/WX    TMP DP  RH WIND       PRES   REMARKS
WILMINGTON     MOCLDY    63  59  87 E9        30.13F
N MYRTLE BEACH CLOUDY    68  63  84 E13G21    30.10F
MYRTLE BEACH   CLOUDY    68  59  73 E14       30.11F

......INLAND NC AND SC COUNTIES.......

CITY           SKY/WX    TMP DP  RH WIND       PRES   REMARKS
LUMBERTON      MOCLDY    65  58  78 SE10      30.11F
ELIZABETHTOWN  MOCLDY    63  59  89 E3        30.13S
WHITEVILLE     MOCLDY    62  58  87 E5        30.12S
FLORENCE       CLOUDY    67  62  84 SE12      30.11S
DARLINGTON     NOT AVBL
KINGSTREE      CLOUDY    68  63  83 E7        30.09S
HARTSVILLE     CLOUDY   N/A N/A N/A SE9       30.09S
BENNETTSVILLE  CLOUDY    70  63  78 E12       30.10F
CONWAY         CLOUDY    64  61  88 E3        30.11S
GEORGETOWN     CLOUDY    68  64  88 E10G16    30.10F
MARION         CLOUDY    63  59  88 E3        30.11S

....................REST OF NORTH CAROLINA......................

.........EASTERN NC.........

CITY           SKY/WX    TMP DP  RH WIND       PRES   REMARKS
CAPE HATTERAS  PTCLDY    58  55  90 NE7       30.17F
JACKSONVILLE   CLOUDY    60  57  89 E7        30.15F
MOREHEAD CITY  CLOUDY    62  58  86 E9        30.16F
KENANSVILLE    CLOUDY    61  56  83 E6        30.16F
NEW BERN       CLOUDY    60  56  86 E7        30.17F
ELIZABETH CITY MOCLDY    55  52  89 E9        30.19F

.........CENTRAL NC.........

CITY           SKY/WX    TMP DP  RH WIND       PRES   REMARKS
RALEIGH DURHAM CLOUDY    61  55  81 SE9       30.14F
ROCKY MOUNT    CLOUDY    59  53  80 E6        30.16F
ROANOKE RAPIDS NOT AVBL
FAYETTEVILLE   CLOUDY    64  58  80 E8        30.12F
HOFFMAN        CLOUDY    66  61  82 SE12      30.10F

.........WESTERN NC.........

CITY           SKY/WX    TMP DP  RH WIND       PRES   REMARKS
CHARLOTTE      MOCLDY    65  62  90 SE9G17    30.07F
GREENSBORO     CLOUDY    58  57  97 E7        30.11F
HICKORY        NOT AVBL
BOONE          NOT AVBL
ASHEVILLE      NOT AVBL

.....................REST OF SOUTH CAROLINA.....................

.........EASTERN SC.........

CITY           SKY/WX    TMP DP  RH WIND       PRES   REMARKS
CHARLESTON     PTCLDY    72  67  84 E9        30.07R
BEAUFORT MCAS  MOCLDY    74  69  85 SE6       30.06R
HILTON HEAD    MOCLDY    73  72  94 E3        30.08R

.........CENTRAL SC.........

CITY           SKY/WX    TMP DP  RH WIND       PRES   REMARKS
COLUMBIA       MOCLDY    74  66  76 SE10      30.05S
ORANGEBURG     CLOUDY    73  67  81 SE8       30.08R
SUMTER SHAW    CLOUDY    69  64  83 SE8       30.07R

.........WESTERN SC.........

CITY           SKY/WX    TMP DP  RH WIND       PRES   REMARKS
GREENVILLE     NOT AVBL
ROCK HILL        N/A    N/A N/A N/A MISG      30.07S
ANDERSON       RAIN      66  64  93 NE7       30.06S FOG
CLEMSON        NOT AVBL
GREENWOOD      CLOUDY    69  63  81 CALM      30.06R


...................COASTAL AND OFFSHORE REPORTS..................

................LOCAL PIERS AND NC RESERVE................


STATION/POSITION TIME  SKY/WX   TEMP    WIND        PRES    VSBY
                                AIR SEA DIR/SP/G
                 (UTC)          (F)     (DEG/KT/KT) (MB)    (MI)
JOHNY MRCER PIER 0300               70                N/A
NC RESRV MASNBRO NOT AVBL
OCEAN CREST PIER NOT AVBL
SPRINGMAID  PIER 0300               71                N/A


................COASTAL AND OFFSHORE BUOYS................


STATION/POSITION TIME  SKY/WX   TEMP    WIND        PRES    VSBY
                                AIR SEA DIR/SP/G
                 (UTC)          (F)     (DEG/KT/KT) (MB)    (MI)
DIMNDSHOAL 41025 0350            64 74   30/ 14/ 16 1021.1F
WVE H/P(F/S)=  5/ 9 SWL H/P/D(F/S/D)=  3/ 40/ 9

CAPE LOOKOUT     0400            62      60/ 11/ 13 1020.9F
ONSLOW BAY 41036 NOT AVBL
ONSLOW BAY 41064 NOT AVBL
ONSLOW BAY 41159 0325               68                N/A
WVE H/P(F/S)=  4/ 9 SWL H/P/D(F/S/D)=  2/ 90/11

5SE WRITBC 41038 0308            65 68   90/ 16/ 21 1021.1R
MASNBO INL 41110 0306               68                N/A
WVE H/P(F/S)=  4/ 5

WILM HARBR 41108 0326               68                N/A
WVE H/P(F/S)=  3/ 6

27SE WRITB 41037 0308            68 70   90/ 16/ 19 1020.2S
FRYING PAN 41013 0300            71 70   60/ 14/ 16 1019.8R
SUNST NRSH 41024 0308            67 68  100/ 17/ 23 1019.0F
CAPRS NRSH 41029 0308            72 72  100/ 14/ 19 1018.0S
EDISTO     41004 0350            75 73  110/ 17/ 21 1017.8F
WVE H/P(F/S)=  4/ 4 SWL H/P/D(F/S/D)=  2/11



..........OFFSHORE BUOYS BEYOND 100 NM OFFSHORE...........
.....IN A TRIANGLE---HAT TO BERMUDA TO BAHAMAS TO HAT.....


STATION/POSITION TIME  SKY/WX   TEMP    WIND        PRES    VSBY
                                AIR SEA DIR/SP/G
                 (UTC)          (F)     (DEG/KT/KT) (MB)    (MI)
150E HAT   41001 NOT AVBL
W BERMUDA  41048 0350            69 69   10/ 16/ 17 1019.2R
WVE H/P(F/S)=  5/ 6 SWL H/P/D(F/S/D)=  2/ 90/10

ATLANTIC S 41049 0350            73 76   80/  6/  8 1017.4F
WVE H/P(F/S)=  3/ 9 SWL H/P/D(F/S/D)=  3/130/ 9

E BAHAMAS  41046 0350            78 79  100/ 12/ 14 1016.3S
WVE H/P(F/S)=  3/ 9 SWL H/P/D(F/S/D)=  3/ 70/ 9

NE BAHAMAS 41047 0350            76 77  100/ 12/ 14 1018.5S
WVE H/P(F/S)=  3/ 9 SWL H/P/D(F/S/D)=  2/ 90/ 9

120E CANVRL41010 0320            77 77  100/  8/ 10 1017.8R

END



USA.gov is the U.S. government's official web portal to all federal, state and local government web resources and services.